Location: Cedar Brake
(32.2526°N, 97.8459°W)
Time: 18:43:10
(UTC+00:00)

Cosmos 1125 Rocket - Pass Details

Date: 22 April 2026
Orbit: 752 x 776 km, 74.0° (Epoch: 9 May)

Event Time Altitude Azimuth Distance (km) Brightness Sun altitude
Rises 02:02:09 0° 199° (SSW) 3,199 6.7 -12.2°
Reaches altitude 10° 02:04:30 10° 200° (SSW) 2,280 5.9 -12.6°
Maximum altitude 02:09:40 77° 286° (WNW) 786 3.7 -13.6°
Drops below altitude 10° 02:14:55 10° 13° (NNE) 2,310 6.1 -14.7°
Sets 02:17:19 0° 15° (NNE) 3,243 6.9 -15.1°
